{"data":{"norad_id":66602,"intl_designator":"2025-270Q","name":"STARLINK-36050","alt_names":[],"object_type":"PAYLOAD","status":"ACTIVE","operator":null,"country":"US","launch_date":"2025-11-22","launch_site_code":"AFETR","launch_vehicle":null,"mission":null,"orbit_class":"UNKNOWN","rcs_meters":null,"size_class":null,"mass_kg":null,"dimensions":null,"purposes":["comms"],"wikipedia_slug":null,"has_3d_model":false,"image_url":null,"decayed_at":null,"tle_current":{"epoch":"2026-05-24T22:29:01.324896Z","epoch_age_seconds":73889,"freshness":"FRESH","line1":"1 66602U 25270Q   26144.93682089  .00008559  00000+0  32011-3 0  9994","line2":"2 66602  43.0025 345.8595 0001265 278.0478  82.0230 15.27587254 29265","mean_motion":15.27587254,"eccentricity":0.0001265,"inclination_deg":43.0025,"raan_deg":345.8595,"arg_perigee_deg":278.0478,"mean_anomaly_deg":82.023,"bstar":0.00032011,"rev_number":2926,"period_min":94.266301072449,"perigee_km":482.15943774655,"apogee_km":483.89531233344,"semimajor_km":6861.16437504,"source":"CELESTRAK","updated_at":"2026-05-25T13:38:21.290231Z"}}}